Weather in Lazavka

Russia / Oryol Oblast     52°52′52″N   37°40′03″E
temp.,
°C
wind,
m/s
gust,
m/s
humid.,
%
clouds,
%
prec.,
mm/h
press.,
hPa
HPBL,
m
17 september, fri
fri1700:00+5ne2279100 0.0 102016
03:00+5ene1181100 0.0 102010
06:00+5ne117899 0.0 102010
09:00+9e116282 0.0 1019373
12:00+12ese1150100 0.0 10181168
15:00+13wnw1146100 0.0 10171419
18:00+11w1255100 0.0 101766
21:00+10ene3759100 0.1 1018563
18 september, sat
sat1800:00+8ene51063100 0.3 1019568
03:00+8e51062100 0.3 1019512
06:00+7e51164100 0.0 1020467
09:00+8e71156100 0.0 1020708
12:00+11ese7948100 0.0 10201047
15:00+11ese6847100 0.1 10201189
18:00+9se4966100 0.2 1020618
21:00+9ese51167100 0.8 1020685
19 september, sun
sun1900:00+8ese61270100 1.0 1020593
03:00+6ese71385100 2.4 1019529
06:00+6e71590100 2.3 1018528
09:00+6e81693100 4.4 1018626
12:00+7ese71493100 3.9 1017680
15:00+6ese71494100 7.0 1016722
18:00+7e61296100 6.1 1015604
21:00+7e61296100 11.7 1014563
20 september, mon
mon2000:00+7ene5997100 0.3 1013436
03:00+8ene3698100 0.3 1012258
06:00+8ne2499100 0.0 1011143
09:00+10e4898100 0.0 1010362
12:00+10e5897100 0.1 1010323
15:00+11ese4998100 2.9 1010367
18:00+13s358919 1.9 1010113
21:00+11ssw349564 2.8 101188
21 september, tue
tue2100:00+10ssw3595100 0.6 1012144
03:00+10s229586 1.4 101274
06:00+7sw22945 0.0 101339
09:00+10ssw237392 0.0 1013282
12:00+14sw3458100 0.0 1013908
15:00+14sw225572 0.0 10131276
18:00+12wnw4670100 0.0 1013338
21:00+10wnw4775100 0.0 1014438